Lugano, Switzerland

9:51 AM CET on January 23, 2018 (GMT +0100)
Lugano

Weather History for LSZA - August, 2014

Change the Weather History Date:

Wednesday, August 13, 2014

  Actual Average Record
Temperature  
Mean Temperature 64 °F -  
Max Temperature 67 °F 72 °F 95 °F (2003)
Min Temperature 60 °F 58 °F 53 °F (1999)
Degree Days  
Heating Degree Days 2    
Growing Degree Days 14 (Base 50)    
Moisture  
Dew Point 64 °F    
Average Humidity 94    
Maximum Humidity 100    
Minimum Humidity 82    
Precipitation  
Precipitation 1.38 in 0.22 in - ()
Sea Level Pressure  
Sea Level Pressure 29.75 in    
Wind  
Wind Speed 2 mph ()    
Max Wind Speed 8 mph    
Max Gust Speed -    
Visibility 5.4 miles    
Events Rain , Thunderstorm    
Averages and records for this station are not official NWS values.
T = Trace of Precipitation, MM = Missing Value Source: Averaged Metar Reports

Daily Weather History Graph

Daily Weather History Graph

Search for Another Location

Airport or City:

Trip Planner

Search our weather history database for the weather conditions in past years. The results will help you decide how hot, cold, wet, or windy it might be!

Date:

Astronomy

Aug. 13, 2014 Rise Set
Actual Time 6:20 AM CEST 8:36 PM CEST
Civil Twilight 5:47 AM CEST 9:09 PM CEST
Nautical Twilight 5:06 AM CEST 9:49 PM CEST
Astronomical Twilight 4:20 AM CEST 10:35 PM CEST
Moon 9:56 PM CEST (8/13) 9:42 AM CEST (8/13)
Length of Visible Light 15h 21m
Length of Day
14h 15m
Waning Gibbous, 90% of the Moon is Illuminated
Aug 13
Waning Gibbous
Aug 17
Last Quarter
Aug 25
New
Sep 2
First Quarter
Sep 9
Full

Hourly Weather History & Observations

Time (CEST) Temp. Dew Point Humidity Pressure Visibility Wind Dir Wind Speed Gust Speed Precip Events Conditions
12:00 AM 68 °F 64 °F 83% 29.83 in - NNW 1.2 mph - -  
12:20 AM 66.2 °F 64.4 °F 94% 29.86 in 6.2 mi Variable 1.2 mph - N/A   Mostly Cloudy
12:50 AM 66.2 °F 64.4 °F 94% 29.86 in 6.2 mi Variable 1.2 mph - N/A   Mostly Cloudy
1:00 AM 69 °F 65 °F 82% 29.83 in - North 3.5 mph - -  
1:20 AM 66.2 °F 64.4 °F 94% 29.86 in 6.2 mi North 2.3 mph - N/A   Mostly Cloudy
1:50 AM 68.0 °F 64.4 °F 88% 29.86 in 6.2 mi North 3.5 mph - N/A   Mostly Cloudy
2:00 AM 67 °F 65 °F 91% 29.83 in 6 mi NNW 2.3 mph - -  
2:20 AM 66.2 °F 64.4 °F 94% 29.83 in 6.2 mi Variable 2.3 mph - N/A   Mostly Cloudy
2:50 AM 66.2 °F 64.4 °F 94% 29.83 in 6.2 mi North 2.3 mph - N/A   Scattered Clouds
3:00 AM 68 °F 64 °F 85% 29.81 in - NE 1.2 mph - -  
3:20 AM 66.2 °F 64.4 °F 94% 29.83 in 6.2 mi North 5.8 mph - N/A   Scattered Clouds
3:50 AM 66.2 °F 64.4 °F 94% 29.80 in 6.2 mi North 3.5 mph - N/A   Overcast
4:00 AM 68 °F 64 °F 84% 29.79 in - NNE 1.2 mph - -  
4:20 AM 66.2 °F 64.4 °F 94% 29.80 in 6.2 mi Variable 2.3 mph - N/A   Mostly Cloudy
4:50 AM 66.2 °F 64.4 °F 94% 29.77 in 6.2 mi NNE 2.3 mph - N/A   Mostly Cloudy
5:00 AM 68 °F 64 °F 85% 29.76 in 6 mi NW 1.2 mph - -  
5:20 AM 66.2 °F 64.4 °F 94% 29.77 in 6.2 mi North 3.5 mph - N/A   Overcast
5:50 AM 66.2 °F 64.4 °F 94% 29.74 in 6.2 mi North 5.8 mph - N/A Rain Light Rain Showers
6:00 AM 67 °F 65 °F 90% 29.74 in - NW 1.2 mph - -  
6:20 AM 66.2 °F 64.4 °F 94% 29.74 in 3.1 mi Variable 1.2 mph - N/A Rain Rain Showers
6:50 AM 66.2 °F 64.4 °F 94% 29.74 in 2.5 mi North 4.6 mph - N/A Rain Rain
7:00 AM 66 °F 65 °F 98% 29.73 in - North 2.3 mph - -  
7:20 AM 64.4 °F 64.4 °F 100% 29.74 in 2.5 mi North 4.6 mph - N/A Rain Light Rain
7:50 AM 66.2 °F 64.4 °F 94% 29.74 in 5.6 mi NNW 5.8 mph - N/A Rain Rain Showers
8:00 AM 66 °F 65 °F 98% 29.72 in 4 mi WSW 1.2 mph - - Rain Rain
8:20 AM 66.2 °F 64.4 °F 94% 29.71 in 5.6 mi Variable 1.2 mph - N/A Rain Rain Showers
8:50 AM 66.2 °F 64.4 °F 94% 29.71 in 5.0 mi Variable 2.3 mph - N/A Rain Rain Showers
9:00 AM 67 °F 64 °F 89% 29.71 in - NNW 2.3 mph - -  
9:20 AM 66.2 °F 64.4 °F 94% 29.74 in 2.2 mi Variable 1.2 mph - N/A Rain Rain Showers
9:50 AM 64.4 °F 64.4 °F 100% 29.74 in 1.9 mi North 3.5 mph - N/A Rain , Thunderstorm Thunderstorms and Rain
10:00 AM 66 °F 65 °F 98% 29.73 in - North 1.2 mph - -  
10:20 AM 64.4 °F 62.6 °F 94% 29.74 in 1.9 mi NNW 6.9 mph - N/A Rain Rain
10:50 AM 62.6 °F 60.8 °F 94% 29.77 in 2.5 mi Variable 2.3 mph - N/A Rain , Thunderstorm Thunderstorms and Rain
11:00 AM 63 °F 62 °F 96% 29.77 in - NW 2.3 mph - -  
11:20 AM 62.6 °F 60.8 °F 94% 29.68 in 2.5 mi Variable 4.6 mph - N/A Rain , Thunderstorm Thunderstorms and Rain
11:50 AM 64.4 °F 62.6 °F 94% 29.74 in 6.2 mi SE 4.6 mph - N/A Rain Rain Showers
12:00 PM 64 °F 63 °F 97% 29.73 in - North 3.5 mph - -  
12:20 PM 64.4 °F 62.6 °F 94% 29.74 in 6.2 mi Variable 2.3 mph - N/A Rain Rain Showers
12:50 PM 64.4 °F 62.6 °F 94% 29.71 in 6.2 mi Variable 2.3 mph - N/A Rain Rain Showers
1:00 PM 64 °F 64 °F 99% 29.71 in - NE 4.6 mph - -  
1:20 PM 64.4 °F 62.6 °F 94% 29.74 in 6.2 mi Variable 2.3 mph - N/A Rain Light Rain Showers
1:50 PM 64.4 °F 62.6 °F 94% 29.71 in 3.1 mi North 4.6 mph - N/A Rain Rain Showers
2:00 PM 65 °F 65 °F 98% 29.71 in 6 mi ESE 2.3 mph - - Rain Rain
2:20 PM 66.2 °F 64.4 °F 94% 29.71 in 5.0 mi Variable 3.5 mph - N/A   Mostly Cloudy
2:50 PM 66.2 °F 62.6 °F 88% 29.71 in 5.0 mi Variable 1.2 mph - N/A   Mostly Cloudy
3:00 PM 64 °F 64 °F 99% 29.71 in - East 1.2 mph - -  
3:20 PM 66.2 °F 64.4 °F 94% 29.71 in 6.2 mi Variable 1.2 mph - N/A   Mostly Cloudy
3:50 PM 68.0 °F 62.6 °F 83% 29.71 in 6.2 mi Variable 1.2 mph - N/A   Mostly Cloudy
4:00 PM 65 °F 64 °F 96% 29.71 in - East 2.3 mph - -  
4:20 PM 66.2 °F 64.4 °F 94% 29.71 in 6.2 mi SE 3.5 mph - N/A   Mostly Cloudy
4:50 PM 68.0 °F 64.4 °F 88% 29.71 in 6.2 mi Variable 1.2 mph - N/A   Mostly Cloudy
5:00 PM 66 °F 65 °F 94% 29.70 in - ESE 8.1 mph - -  
5:20 PM 68.0 °F 64.4 °F 88% 29.71 in 5.6 mi Variable 2.3 mph - N/A Rain Rain Showers
5:50 PM 68.0 °F 66.2 °F 94% 29.71 in 6.2 mi Variable 2.3 mph - N/A   Mostly Cloudy
6:00 PM 67 °F 65 °F 92% 29.70 in - ESE 4.6 mph - -  
6:20 PM 68.0 °F 64.4 °F 88% 29.71 in 6.2 mi NNE 2.3 mph - N/A   Mostly Cloudy
6:50 PM 68.0 °F 64.4 °F 88% 29.71 in 6.2 mi Variable 1.2 mph - N/A   Mostly Cloudy
7:00 PM 67 °F 65 °F 93% 29.72 in - North 1.2 mph - -  
7:20 PM 68.0 °F 66.2 °F 94% 29.74 in 6.2 mi Variable 2.3 mph - N/A   Mostly Cloudy
7:50 PM 68.0 °F 66.2 °F 94% 29.74 in 6.2 mi North 3.5 mph - N/A   Scattered Clouds
8:00 PM 66 °F 65 °F 98% 29.73 in 12 mi North 1.2 mph - -   Partly Cloudy
8:20 PM 66.2 °F 64.4 °F 94% 29.74 in 6.2 mi North 3.5 mph - N/A   Partly Cloudy
8:50 PM 64.4 °F 62.6 °F 94% 29.74 in 6.2 mi Variable 2.3 mph - N/A   Partly Cloudy
9:00 PM 65 °F 65 °F 100% 29.74 in - NNW 2.3 mph - -  
9:20 PM 64.4 °F 62.6 °F 94% 29.77 in 6.2 mi Variable 1.2 mph - N/A   Partly Cloudy
9:50 PM 62.6 °F 60.8 °F 94% 29.77 in 6.2 mi Variable 2.3 mph - N/A   Partly Cloudy
10:00 PM 64 °F 63 °F 97% 29.76 in - North 3.5 mph - -  
10:20 PM 60.8 °F 60.8 °F 100% 29.77 in 3.7 mi Variable 2.3 mph - N/A   Partly Cloudy
10:50 PM 62.6 °F 60.8 °F 94% 29.77 in 6.2 mi Variable 2.3 mph - N/A   Unknown
11:00 PM 62 °F 62 °F 99% 29.78 in - North 3.5 mph - -  
11:20 PM 60.8 °F 60.8 °F 100% 29.77 in 5.0 mi Variable 2.3 mph - N/A   Unknown
11:50 PM 60.8 °F 60.8 °F 100% 29.77 in - Variable 1.2 mph - N/A   Mist